CAPE
0 0 0 0 0 0 0 0 0 0 0 0 0 0 0 0 37 262 422 340 910 974 1117 1267 1204 853 534 462 195 235 278 98 74 230 317 336 317 310 206 151 99 13 10
0 0 0 0 0 0 0 0 0 0 0 0 0 0 0 0 27 238 486 270 952 995 1192 1171 993 1021 644 437 290 153 200 66 128 166 213 285 245 167 87 27 30 3 3
0 0 0 0 0 0 0 0 0 0 1 0 0 0 0 0 92 254 458 536 784 978 1086 1265 1125 999 695 339 211 203 107 41 110 165 176 216 156 112 23 22 15 8 5
0 0 0 0 0 0 0 0 0 1 1 0 10 7 19 34 158 292 491 649 842 1062 1094 1094 1158 883 684 514 398 256 86 172 91 143 174 175 141 107 98 44 15 8 5
0 0 0 0 0 0 0 0 0 0 1 0 48 41 14 113 328 549 583 604 836 884 1044 1080 791 768 707 513 400 231 181 86 87 151 199 173 116 131 154 27 19 3 2
0 0 0 0 0 0 0 1 0 0 0 68 276 55 42 80 213 468 407 388 797 763 613 644 825 530 734 592 373 240 284 76 140 121 182 177 193 137 69 40 19 5 1
0 0 0 0 0 0 0 0 0 0 28 16 1 33 21 14 44 404 658 400 452 457 478 530 591 572 370 489 312 198 105 137 152 127 186 176 189 84 61 32 7 1 0
0 0 0 0 0 0 0 0 0 0 1 9 12 3 167 155 253 305 534 609 377 459 363 357 370 357 251 136 74 135 113 188 184 181 178 193 185 88 45 19 4 0 0
0 4 0 0 0 0 0 0 0 1 63 11 1 51 70 37 258 462 464 486 316 201 86 214 201 152 139 17 113 145 230 164 141 123 135 150 125 79 42 5 1 0 0
0 0 0 0 0 0 0 0 0 0 43 36 27 54 0 154 118 302 470 277 294 123 31 94 92 41 3 6 117 154 82 126 94 55 60 192 133 96 19 2 1 0 0
0 0 0 0 0 0 0 0 0 0 5 20 40 84 81 109 89 123 273 182 97 48 24 16 24 44 2 11 20 29 62 58 58 117 135 160 111 44 8 13 0 0 0
0 0 0 0 0 0 0 0 0 0 0 1 23 31 139 347 143 144 72 82 44 29 23 16 12 14 3 37 26 52 57 45 52 69 108 152 123 73 18 1 0 0 0
0 0 0 0 0 0 0 0 0 0 0 18 25 2 5 23 10 76 65 66 56 9 15 2 18 2 6 3 20 94 54 30 23 27 30 25 33 32 13 0 0 0 0
0 0 0 0 0 0 0 0 0 0 0 0 4 2 3 8 60 36 10 4 9 42 13 6 10 7 2 26 54 72 24 5 5 4 5 0 0 0 0 0 0 0 0
0 0 0 0 0 0 0 0 0 0 0 0 0 0 1 0 0 0 1 0 0 39 40 3 20 5 19 45 64 22 8 0 0 0 0 0 0 0 0 0 0 0 0
0 0 0 0 0 0 0 0 2 0 9 1 1 4 4 1 1 0 0 1 22 21 31 20 12 10 30 23 36 0 0 0 0 0 0 0 0 0 0 0 0 0 0
0 0 0 0 0 1 1 2 10 15 11 2 2 2 2 1 2 0 12 44 21 15 17 69 29 26 24 24 16 0 0 0 0 0 0 0 0 0 0 0 0 0 0
0 0 0 0 0 0 1 1 0 1 1 3 3 3 2 1 0 2 8 33 1 28 38 32 18 21 21 5 3 1 1 0 0 0 0 0 0 0 0 0 0 0 0
0 0 1 1 1 0 2 1 1 2 3 5 4 6 3 3 5 5 6 4 19 9 5 30 16 36 27 8 0 0 0 0 0 0 0 0 0 0 0 0 0 0 0
0 0 0 1 0 0 1 0 0 1 2 1 4 3 2 1 1 0 4 6 4 15 17 13 2 3 0 1 0 0 0 0 0 0 0 0 0 0 0 0 0 0 0
0 0 1 3 1 1 3 1 2 1 1 2 3 1 1 1 0 4 1 2 1 3 17 3 0 0 0 1 14 0 0 0 0 0 0 0 0 0 0 0 0 0 0
4 22 11 26 20 2 0 0 0 1 1 2 1 1 0 0 1 0 0 0 0 0 0 0 0 0 0 0 0 0 0 0 0 0 0 0 0 0 0 0 0 0 0
0 5 5 8 2 0 0 0 0 1 2 2 1 2 3 0 0 0 0 0 0 0 0 0 0 0 0 0 0 0 0 0 0 0 0 0 0 0 0 0 0 0 0
0 0 0 0 0 0 2 1 0 5 6 5 2 1 1 1 0 0 0 0 0 0 0 0 0 0 0 0 0 0 0 0 0 0 0 0 0 0 0 0 0 0 0
0 0 0 0 1 1 2 1 2 2 1 1 1 1 0 0 0 0 0 0 0 0 0 0 0 0 0 0 0 0 0 0 0 0 0 0 0 0 0 0 0 0 0
0 0 0 0 1 0 1 1 0 1 1 1 0 0 0 0 0 0 0 0 0 0 0 0 0 0 0 0 0 0 0 0 0 0 0 0 0 0 0 0 0 0 0
CIN
-0 -0 -0 -0 -0 -0 -0 -0 -0 -0 -0 -0 -0 -0 -0 -0 -83 -31 -15 -39 -3 -3 -0 -0 -0 -0 -0 -0 -2 -0 -2 -1 -3 -0 -1 -0 -0 -0 -0 -24 -49 -73 -121
-0 -0 -0 -0 -0 -0 -0 -0 -0 -0 -0 -0 -0 -0 -0 -0 -92 -53 -17 -69 -7 -5 -0 -0 -0 -0 -0 -0 -4 -1 -1 -9 -0 -1 -14 -0 -1 -6 -64 -109 -173 -0 -0
-0 -0 -0 -0 -0 -0 -0 -0 -0 -0 -0 -0 -0 -0 -0 -0 -83 -71 -46 -43 -15 -8 -2 -0 -0 -0 -0 -2 -0 -0 -3 -18 -0 -1 -17 -2 -17 -57 -129 -181 -221 -276 -0
-0 -0 -0 -0 -0 -0 -0 -0 -0 -0 -0 -0 -83 -97 -126 -136 -87 -91 -52 -35 -14 -8 -9 -10 -0 -0 -0 -1 -0 -0 -1 -0 -2 -2 -27 -16 -47 -73 -88 -146 -217 -0 -0
-0 -0 -0 -0 -0 -0 -0 -0 -0 -0 -0 -0 -69 -101 -146 -100 -68 -42 -36 -50 -26 -29 -18 -9 -18 -3 -0 -10 -2 -3 -0 -0 -1 -6 -3 -24 -56 -70 -90 -156 -230 -0 -0
-0 -0 -0 -0 -0 -0 -0 -0 -0 -0 -0 -42 -17 -74 -97 -95 -81 -47 -64 -91 -33 -47 -61 -61 -15 -10 -0 -3 -8 -3 -41 -0 -0 -10 -3 -18 -34 -96 -131 -178 -250 -309 -0
-0 -0 -0 -0 -0 -0 -0 -0 -0 -0 -22 -53 -5 -56 -90 -121 -110 -38 -17 -65 -60 -70 -58 -28 -26 -1 -2 -0 -0 -0 -1 -0 -0 -9 -0 -26 -40 -90 -143 -181 -235 -0 -0
-0 -0 -0 -0 -0 -0 -0 -0 -0 -0 -19 -95 -74 -26 -22 -28 -23 -27 -15 -8 -36 -29 -32 -23 -39 -18 -1 -7 -2 -0 -0 -0 -0 -0 -9 -14 -16 -98 -98 -159 -134 -0 -0
-0 -54 -0 -0 -0 -0 -0 -0 -0 -7 -41 -46 -65 -69 -18 -7 -2 -4 -7 -2 -19 -54 -82 -21 -17 -3 -5 -37 -0 -0 -0 -0 -1 -0 -0 -17 -30 -36 -99 -137 -0 -0 -0
-0 -0 -0 -0 -0 -0 -0 -0 -0 -3 -123 -87 -69 -68 -0 -70 -41 -3 -0 -5 -6 -28 -55 -42 -10 -0 -9 -37 -0 -0 -0 -1 -1 -42 -56 -8 -20 -63 -89 -101 -0 -0 -0
-0 -0 -0 -0 -0 -0 -0 -0 -0 -0 -130 -96 -69 -63 -79 -96 -108 -79 -10 -11 -17 -37 -41 -44 -30 -5 -0 -37 -0 -1 -3 -3 -25 -24 -22 -13 -41 -59 -91 -138 -0 -0 -0
-0 -0 -0 -0 -0 -0 -0 -0 -0 -0 -0 -96 -117 -132 -85 -51 -86 -55 -52 -34 -51 -22 -37 -51 -37 -40 -0 -1 -13 -2 -3 -9 -38 -20 -25 -10 -5 -37 -99 -0 -0 -0 -0
-0 -0 -0 -0 -0 -0 -0 -0 -0 -0 -0 -145 -157 -105 -170 -143 -165 -80 -36 -39 -37 -15 -20 -17 -45 -13 -1 -0 -0 -0 -8 -23 -48 -53 -41 -43 -63 -62 -68 -0 -0 -0 -0
-0 -0 -0 -0 -0 -0 -0 -0 -0 -0 -0 -0 -146 -184 -164 -118 -78 -93 -141 -140 -102 -16 -20 -1 -31 -36 -0 -12 -2 -3 -20 -89 -94 -81 -88 -10 -4 -0 -0 -0 -0 -0 -0
-0 -0 -0 -0 -0 -0 -0 -0 -0 -0 -0 -0 -0 -30 -79 -0 -0 -45 -57 -0 -0 -2 -5 -2 -13 -30 -12 -0 -0 -4 -33 -0 -0 -0 -0 -0 -0 -0 -0 -0 -0 -0 -0
-0 -0 -0 -0 -0 -0 -0 -0 -52 -0 -137 -0 -0 -161 -109 -0 -0 -17 -0 -57 -54 -19 -6 -5 -5 -0 -4 -6 -1 -0 -0 -0 -0 -0 -0 -0 -0 -0 -0 -0 -0 -0 -0
-0 -0 -0 -0 -0 -0 -0 -0 -84 -82 -94 -0 -0 -0 -0 -0 -33 -21 -62 -28 -47 -27 -17 -0 -6 -3 -4 -0 -2 -0 -0 -0 -0 -0 -0 -0 -0 -0 -0 -0 -0 -0 -0
-0 -0 -0 -0 -0 -0 -0 -0 -0 -1 -0 -0 -0 -0 -0 -111 -0 -57 -46 -16 -35 -19 -26 -8 -1 -2 -5 -14 -79 -0 -0 -0 -0 -0 -0 -0 -0 -0 -0 -0 -0 -0 -0
-0 -0 -0 -0 -0 -0 -1 -0 -0 -0 -0 -0 -0 -0 -0 -10 -45 -33 -30 -26 -5 -8 -12 -9 -1 -7 -2 -35 -0 -0 -0 -0 -0 -0 -0 -0 -0 -0 -0 -0 -0 -0 -0
-0 -0 -0 -0 -0 -1 -0 -0 -5 -7 -6 -2 -0 -0 -0 -0 -0 -0 -36 -29 -20 -5 -1 -7 -18 -0 -0 -0 -0 -0 -0 -0 -0 -0 -0 -0 -0 -0 -0 -0 -0 -0 -0
-0 -0 -0 -0 -0 -0 -0 -0 -1 -4 -5 -1 -0 -1 -0 -0 -21 -27 -32 -10 -5 -17 -9 -11 -0 -0 -0 -38 -23 -0 -0 -0 -0 -0 -0 -0 -0 -0 -0 -0 -0 -0 -0
-71 -53 -55 -51 -49 -0 -0 -0 -3 -3 -0 -0 -0 -0 -0 -0 -0 -0 -0 -0 -0 -0 -0 -10 -0 -0 -0 -0 -0 -0 -0 -0 -0 -0 -0 -0 -0 -0 -0 -0 -0 -0 -0
-153 -99 -73 -45 -45 -0 -0 -0 -0 -1 -1 -1 -0 -0 -0 -0 -0 -0 -0 -0 -0 -0 -65 -0 -45 -0 -0 -0 -0 -0 -0 -0 -0 -0 -0 -0 -0 -0 -0 -0 -0 -0 -0
-0 -0 -0 -0 -0 -0 -0 -0 -0 -41 -17 -0 -7 -0 -0 -0 -0 -0 -0 -0 -0 -0 -0 -0 -0 -0 -0 -0 -0 -0 -0 -0 -0 -0 -0 -0 -0 -0 -0 -0 -0 -0 -0
-0 -0 -0 -0 -0 -0 -0 -0 -0 -0 -0 -0 -0 -0 -0 -0 -0 -0 -0 -0 -0 -0 -0 -0 -0 -0 -0 -0 -0 -0 -0 -0 -0 -0 -0 -0 -0 -0 -0 -0 -0 -0 -0
-0 -0 -0 -0 -0 -0 -0 -0 -0 -0 -0 -0 -0 -0 -0 -0 -0 -0 -0 -0 -0 -0 -0 -0 -0 -0 -0 -0 -0 -0 -0 -0 -0 -0 -0 -0 -0 -0 -0 -0 -0 -0 -0
Wind_Speed
5 4 5 4 3 2 3 3 3 3 4 5 5 6 5 5 5 3 3 12 15 12 16 19 23 22 24 23 23 21 19 17 15 14 17 18 18 17 17 17 16 14 15
5 4 4 5 4 3 3 2 4 3 3 4 5 5 5 4 5 5 4 6 14 12 15 18 22 22 24 24 22 22 20 18 14 16 20 18 18 17 18 18 16 16 16
6 5 4 4 4 3 4 3 3 2 2 2 4 4 3 5 5 5 6 6 6 12 15 18 21 21 20 20 21 22 21 17 17 19 22 19 18 18 18 17 17 16 16
6 5 4 4 3 3 3 2 2 2 2 4 3 3 3 4 5 6 5 4 5 5 11 18 20 19 20 23 24 24 22 17 18 19 21 19 19 18 18 17 16 17 17
5 5 4 4 4 3 3 2 1 2 3 3 3 2 2 3 4 3 5 5 6 5 5 15 20 18 21 23 25 26 22 19 18 20 20 19 19 19 17 17 16 16 16
5 4 3 3 3 3 3 3 3 2 2 3 2 1 1 1 1 2 4 4 3 4 4 5 10 12 23 23 23 25 23 23 20 21 19 19 18 19 18 17 16 16 14
4 5 3 3 3 4 4 5 3 4 1 3 4 2 4 3 2 1 2 2 3 3 5 5 7 7 10 21 23 23 24 23 23 22 18 18 18 18 18 18 17 15 13
5 4 4 3 4 3 4 5 4 3 2 3 3 2 2 2 4 1 2 2 3 3 5 7 9 9 9 9 14 24 25 24 24 22 19 16 16 15 15 15 15 15 12
3 5 4 4 4 3 4 6 4 5 3 2 1 3 2 2 3 2 3 3 3 2 2 6 8 11 11 10 13 18 26 25 23 22 18 15 15 16 15 14 14 13 11
2 3 4 4 4 3 5 6 4 3 4 3 1 1 1 3 3 3 1 2 4 3 5 5 6 9 11 10 11 17 22 20 22 21 18 18 17 16 14 13 12 11 9
0 2 3 4 4 3 4 5 5 4 2 4 3 2 1 2 2 3 3 2 2 3 4 5 3 7 12 11 8 17 21 18 19 18 18 16 15 14 13 13 12 11 9
1 3 4 4 4 4 5 4 3 4 4 3 2 3 3 3 3 3 4 4 4 1 5 6 5 3 13 12 17 21 19 16 14 12 11 12 12 13 13 13 12 11 8
1 3 3 4 3 4 5 4 4 3 3 3 4 3 1 1 2 3 6 4 4 2 2 5 5 4 7 14 15 19 19 15 12 12 10 9 10 11 11 11 10 8 5
2 3 3 4 3 5 5 5 3 2 3 3 3 3 2 2 4 4 4 7 4 2 1 4 5 7 6 12 16 18 10 13 12 10 9 9 7 8 8 7 6 5 2
2 4 4 4 4 5 6 5 3 4 4 3 4 4 4 3 3 3 4 5 5 2 1 4 3 9 8 10 13 10 9 11 12 10 8 9 8 7 7 6 6 4 3
2 4 4 4 5 5 6 5 4 4 6 4 4 5 6 3 5 5 5 5 4 3 4 2 4 11 9 9 12 9 9 10 10 10 8 7 7 7 7 6 6 5 5
3 4 5 5 6 7 7 7 5 5 6 7 6 7 7 6 5 5 5 5 6 5 8 4 9 11 12 11 8 7 7 5 4 8 5 7 8 7 6 5 4 5 5
4 5 5 6 7 8 6 7 6 5 6 7 8 8 7 5 6 5 5 7 6 6 9 9 11 10 11 10 8 8 5 4 3 5 6 6 6 6 5 5 6 4 5
5 5 7 8 8 6 7 6 7 7 7 7 8 8 9 9 7 6 6 7 6 6 6 9 6 8 7 7 5 4 3 3 2 4 5 4 4 3 3 3 3 3 4
5 5 7 9 10 7 8 9 6 7 7 6 7 7 7 8 9 10 7 8 8 8 8 8 9 9 4 4 4 3 3 2 2 2 3 4 5 6 6 6 6 8 7
5 5 8 8 9 9 5 8 7 6 7 7 7 7 7 7 10 8 7 8 9 7 7 7 5 6 3 5 6 3 3 2 2 1 3 5 6 7 7 8 13 16 14
4 5 6 8 8 5 11 10 8 7 7 7 7 7 9 13 12 14 14 14 8 9 8 5 3 6 4 4 3 4 4 3 3 2 4 7 6 7 8 8 14 18 17
4 5 5 6 6 7 12 12 10 6 7 6 7 7 7 7 11 11 11 10 9 9 5 4 8 6 5 7 6 3 3 2 3 2 5 6 4 9 7 10 14 15 14
4 3 4 5 5 4 10 11 11 8 7 8 7 9 9 10 8 9 6 5 5 4 3 2 4 6 4 7 6 4 5 7 4 4 1 4 1 7 7 8 11 11 13
3 3 3 5 7 5 8 11 9 7 8 7 8 9 9 8 9 9 5 6 6 5 8 9 9 7 9 11 8 7 5 6 3 2 3 4 3 4 4 5 6 14 16
4 4 5 4 6 7 6 10 8 6 8 6 6 6 9 8 8 7 5 6 6 4 7 6 6 8 7 7 6 3 6 5 4 2 2 3 4 4 5 3 6 8 8
Wind_Direction
218 211 224 212 221 212 226 242 246 232 213 198 185 198 212 222 229 224 233 261 268 223 218 198 201 188 181 166 162 167 151 147 155 166 144 134 124 123 121 115 118 125 126
215 215 221 219 211 213 218 225 232 215 205 188 195 202 215 228 229 230 218 253 267 222 214 200 196 183 175 169 160 154 147 140 164 173 147 127 124 127 125 126 131 129 127
215 216 223 225 204 203 217 221 222 194 175 187 206 208 222 238 234 235 221 232 258 234 210 200 195 192 172 151 156 151 141 153 178 170 141 129 131 129 130 134 130 132 124
211 211 213 210 193 199 206 206 177 186 187 193 194 220 230 230 236 237 222 227 242 231 213 202 189 183 177 157 156 151 148 164 178 161 133 136 133 133 136 131 135 131 124
212 203 209 207 184 184 200 177 162 163 177 189 205 226 245 241 240 219 223 225 228 202 181 205 169 177 162 156 155 152 154 157 171 145 137 136 139 135 128 137 134 128 126
207 196 213 210 183 173 177 166 161 177 175 175 165 92 6 346 229 208 220 218 187 183 170 185 171 163 163 165 162 155 154 155 162 144 141 140 136 129 141 136 138 130 129
209 197 198 192 183 186 176 168 144 158 122 144 123 96 63 40 151 174 190 133 135 162 115 133 143 148 168 168 159 156 151 160 159 142 142 134 133 143 140 150 138 133 136
217 197 187 194 185 156 159 167 158 139 104 160 130 107 86 45 70 122 124 108 126 125 135 144 139 140 142 142 157 155 163 160 147 144 129 128 132 133 152 147 139 137 141
241 203 187 178 181 160 171 176 161 143 135 157 117 128 127 146 135 17 83 118 104 113 119 134 130 144 141 145 159 170 153 145 138 127 128 129 147 162 156 145 142 141 152
262 186 182 181 173 157 176 178 156 145 126 143 135 124 108 139 148 140 86 85 137 112 155 109 150 139 138 152 172 159 132 140 131 131 144 165 163 159 149 146 149 150 158
56 159 166 160 157 168 159 155 164 153 148 151 152 141 97 69 93 134 122 138 75 122 121 117 130 149 144 143 119 130 136 140 136 145 168 163 159 152 151 157 158 164 174
99 124 140 151 151 163 157 170 162 171 190 165 152 121 169 154 171 132 119 98 91 51 137 122 117 141 152 146 136 141 141 136 142 156 154 152 153 154 159 166 171 172 179
120 142 131 151 153 159 160 148 154 175 188 170 140 159 109 128 135 102 118 111 99 51 216 115 111 96 96 127 137 144 134 142 150 139 133 130 147 151 163 173 176 174 181
140 149 135 138 134 132 131 137 139 134 135 127 139 102 140 135 137 147 130 146 90 78 89 123 118 121 90 131 139 128 135 137 127 117 127 133 145 148 170 167 167 170 168
154 152 152 123 113 113 123 130 123 123 119 121 118 121 105 95 91 76 73 96 109 142 92 96 112 115 105 131 126 122 124 121 128 136 139 146 153 158 172 173 186 194 219
151 153 142 116 108 109 119 114 115 121 115 114 113 114 106 98 93 96 96 87 117 129 108 59 105 124 113 106 114 111 120 124 132 149 154 183 166 178 178 190 207 230 251
136 147 137 121 110 112 122 124 128 128 113 115 114 121 106 119 116 111 104 112 132 124 120 109 121 126 123 119 110 107 119 124 141 144 167 168 179 186 202 216 236 250 256
124 129 127 119 123 122 124 133 124 132 130 126 115 114 115 113 107 105 100 102 110 123 126 126 129 133 127 120 116 120 124 122 139 184 188 182 189 205 221 243 259 311 327
104 105 109 117 113 111 115 124 124 120 115 119 126 138 139 131 126 123 108 105 109 108 113 123 119 128 118 122 113 92 99 107 149 164 177 199 222 248 323 330 346 314 339
107 112 116 117 122 121 125 132 111 105 99 101 107 116 122 125 142 138 121 116 113 116 115 110 120 119 116 100 101 119 122 128 132 93 75 59 61 67 44 30 38 41 37
105 108 117 114 118 124 119 123 113 104 105 99 97 105 106 110 99 104 116 123 118 115 120 124 101 113 108 142 156 155 113 118 80 99 97 46 68 68 57 65 75 69 66
96 110 115 123 119 114 122 115 117 114 109 109 104 101 111 103 93 93 87 82 88 111 112 117 112 135 133 135 128 151 127 122 134 53 100 71 75 79 73 73 79 74 73
110 105 113 112 121 122 128 125 118 117 118 118 120 120 104 104 107 105 87 84 87 91 102 119 143 145 141 169 153 128 127 128 117 129 124 93 82 88 81 66 75 80 77
101 114 113 115 111 125 134 135 124 120 120 120 126 124 124 123 121 118 109 94 82 108 106 112 149 152 157 155 144 147 139 111 104 90 74 104 120 103 94 78 60 83 78
95 102 107 118 109 107 131 131 118 118 110 105 98 118 127 129 131 120 107 98 102 81 54 69 90 105 128 139 140 126 125 125 93 64 32 110 151 130 110 86 70 59 61
102 110 98 88 112 123 134 127 121 124 119 114 102 100 108 132 139 125 116 140 121 132 124 98 77 61 69 79 69 68 148 135 133 129 85 112 144 173 151 116 52 41 50